EW8108 Weather Reports


Display with metric or nautical units.
time (UTC)temp
F
wind
direction
speed
MPH
gust
MPH
rain 1hr
in
rain 24hr
in
rain mn
in
humidity
%
barometer
mb
20211024005807 77 209 0.0 1.0 0.00 0.00 0.00 60 971.5
20211024004801 77 239 0.0 1.0 0.00 0.00 0.00 62 971.4
20211024003812 78 217 0.0 0.0 0.00 0.00 0.00 62 971.3
20211024002803 78 222 0.0 0.0 0.00 0.00 0.00 62 971.2
20211024001731 78 222 0.0 0.0 0.00 0.00 0.00 63 971.0
20211024000714 79 225 0.0 0.0 0.00 0.00 0.00 64 971.0
20211023235650 79 229 0.0 0.0 0.00 0.00 0.00 64 971.1
20211023234616 80 231 0.0 0.0 0.00 0.00 0.00 65 971.2
20211023233547 81 239 0.0 1.0 0.00 0.00 0.00 65 971.3
20211023232515 82 223 0.0 2.0 0.00 0.00 0.00 64 971.2
20211023231530 82 223 0.0 0.0 0.00 0.00 0.00 63 971.2
20211023230507 83 229 0.0 5.0 0.00 0.00 0.00 62 971.2
20211023225446 83 207 0.0 0.0 0.00 0.00 0.00 59 971.2
20211023224423 84 219 0.0 4.0 0.00 0.00 0.00 58 971.2
20211023223422 84 236 0.0 4.0 0.00 0.00 0.00 58 971.2
20211023222444 85 225 0.0 2.0 0.00 0.00 0.00 57 971.3
20211023221410 86 194 0.0 5.0 0.00 0.00 0.00 54 971.2
20211023220357 87 246 0.0 6.0 0.00 0.00 0.00 55 971.2
20211023215323 87 210 0.0 6.0 0.00 0.00 0.00 55 971.2
20211023214342 87 242 0.0 5.0 0.00 0.00 0.00 53 971.3
20211023213334 87 198 0.0 3.0 0.00 0.00 0.00 55 971.3
20211023212306 88 232 0.0 6.0 0.00 0.00 0.00 55 971.5
20211023211237 87 207 0.0 5.0 0.00 0.00 0.00 57 971.5
20211023210242 87 208 0.0 0.0 0.00 0.00 0.00 57 971.6
20211023205216 87 232 0.0 0.0 0.00 0.00 0.00 58 971.7
20211023204154 87 227 0.0 2.0 0.00 0.00 0.00 57 971.8
20211023203155 87 229 0.0 1.0 0.00 0.00 0.00 57 972.0
20211023202156 87 236 0.0 2.0 0.00 0.00 0.00 57 972.0
20211023201155 87 238 0.0 0.0 0.00 0.00 0.00 58 972.0
20211023200207 87 219 0.0 7.0 0.00 0.00 0.00 56 972.2
20211023195223 88 250 0.0 0.0 0.00 0.00 0.00 57 972.4
20211023194209 88 217 0.0 1.0 0.00 0.00 0.00 58 972.5
20211023193143 88 227 0.0 4.0 0.00 0.00 0.00 57 972.7
20211023192153 87 213 0.0 0.0 0.00 0.00 0.00 60 972.9
20211023191124 87 228 0.0 3.0 0.00 0.00 0.00 59 973.0
20211023190129 87 203 0.0 3.0 0.00 0.00 0.00 59 973.1
20211023185104 87 239 0.0 5.0 0.00 0.00 0.00 58 973.2
20211023184057 87 261 0.0 1.0 0.00 0.00 0.00 61 973.4
20211023183040 87 254 0.0 5.0 0.00 0.00 0.00 59 973.6
20211023182029 87 191 0.0 5.0 0.00 0.00 0.00 58 973.8
20211023181035 87 234 0.0 1.0 0.00 0.00 0.00 60 974.0
20211023180025 86 203 0.0 2.0 0.00 0.00 0.00 61 974.2
20211023175044 85 244 0.0 7.0 0.00 0.00 0.00 63 974.3
20211023174025 85 207 0.0 3.0 0.00 0.00 0.00 63 974.4
20211023173018 85 263 0.0 4.0 0.00 0.00 0.00 63 974.5
20211023172000 84 261 0.0 0.0 0.00 0.00 0.00 64 974.7
20211023170938 83 205 0.0 6.0 0.00 0.00 0.00 63 974.9
20211023165946 83 236 0.0 3.0 0.00 0.00 0.00 64 975.0
20211023164938 82 233 0.0 6.0 0.00 0.00 0.00 64 975.1
20211023163949 82 200 0.0 6.0 0.00 0.00 0.00 63 975.3
20211023163007 82 206 0.0 7.0 0.00 0.00 0.00 62 975.3
20211023162020 81 226 0.0 7.0 0.00 0.00 0.00 60 975.4
20211023161027 81 201 0.0 7.0 0.00 0.00 0.00 60 975.6
20211023160020 80 236 0.0 6.0 0.00 0.00 0.00 55 975.7
20211023155008 79 192 0.0 5.0 0.00 0.00 0.00 47 975.8
20211023154024 77 257 0.0 3.0 0.00 0.00 0.00 25 975.9
20211023152959 76 219 0.0 3.0 0.00 0.00 0.00 17 976.0
20211023152022 75 238 0.0 3.0 0.00 0.00 0.00 1 976.0
20211023150954 74 217 0.0 3.0 0.00 0.00 0.00 1 976.0
20211023150012 74 219 0.0 6.0 0.00 0.00 0.00 1 976.0
20211023144954 74 219 0.0 4.0 0.00 0.00 0.00 1 976.0
20211023143954 72 215 0.0 1.0 0.00 0.00 0.00 1 975.9
20211023142932 71 213 0.0 6.0 0.00 0.00 0.00 1 975.8
20211023141931 71 217 0.0 0.0 0.00 0.00 0.00 1 975.8
20211023140939 70 217 0.0 0.0 0.00 0.00 0.00 1 975.6
20211023135910 70 215 0.0 0.0 0.00 0.00 0.00 1 975.6
20211023134853 70 215 0.0 0.0 0.00 0.00 0.00 1 975.6
20211023133835 69 219 0.0 4.0 0.00 0.00 0.00 1 975.5
20211023132840 69 217 0.0 0.0 0.00 0.00 0.00 1 975.4
20211023131830 69 217 0.0 0.0 0.00 0.00 0.00 1 975.2
20211023130814 69 217 0.0 0.0 0.00 0.00 0.00 1 975.1
20211023125824 69 217 0.0 0.0 0.00 0.00 0.00 1 974.9
20211023124759 69 217 0.0 0.0 0.00 0.00 0.00 1 974.9
20211023123819 69 217 0.0 0.0 0.00 0.00 0.00 1 974.7
20211023122801 69 217 0.0 0.0 0.00 0.00 0.00 1 974.6
20211023121755 69 217 0.0 0.0 0.00 0.00 0.00 1 974.5
20211023120739 69 214 0.0 2.0 0.00 0.00 0.00 1 974.5
20211023115754 69 215 0.0 0.0 0.00 0.00 0.00 1 974.6
20211023114720 69 215 0.0 0.0 0.00 0.00 0.00 1 974.5
20211023113702 69 215 0.0 0.0 0.00 0.00 0.00 1 974.4
20211023112638 69 215 0.0 0.0 0.00 0.00 0.00 1 974.5
20211023111635 69 215 0.0 0.0 0.00 0.00 0.00 1 974.3
20211023110654 69 215 0.0 5.0 0.00 0.00 0.00 1 974.5
20211023105642 69 213 0.0 0.0 0.00 0.00 0.00 1 974.5
20211023104644 69 213 0.0 1.0 0.00 0.00 0.00 1 974.5
20211023103621 69 213 0.0 0.0 0.00 0.00 0.00 1 974.4
20211023102552 69 212 0.0 0.0 0.00 0.00 0.00 1 974.6
20211023101538 69 212 0.0 0.0 0.00 0.00 0.00 1 974.5
20211023100554 69 212 0.0 0.0 0.00 0.00 0.00 1 974.7
20211023095551 69 210 0.0 0.0 0.00 0.00 0.00 1 974.8
20211023094526 69 208 0.0 0.0 0.00 0.00 0.00 1 974.8
20211023093455 70 206 0.0 0.0 0.00 0.00 0.00 1 974.9
20211023092437 70 205 0.0 0.0 0.00 0.00 0.00 1 975.0
20211023091454 70 203 0.0 0.0 0.00 0.00 0.00 1 974.9
20211023090508 70 203 0.0 0.0 0.00 0.00 0.00 1 975.0
20211023085452 70 249 0.0 2.0 0.00 0.00 0.00 1 975.0
20211023084439 70 221 0.0 2.0 0.00 0.00 0.00 1 975.1
20211023083433 70 180 0.0 3.0 0.00 0.00 0.00 1 975.3
20211023082406 70 238 0.0 1.0 0.00 0.00 0.00 1 975.3
20211023081409 70 246 0.0 1.0 0.00 0.00 0.00 1 975.3
20211023080346 70 227 0.0 0.0 0.00 0.00 0.00 1 975.5
20211023075359 70 232 0.0 0.0 0.00 0.00 0.00 1 975.5
20211023074416 70 234 0.0 4.0 0.00 0.00 0.00 1 975.6
20211023073430 70 225 0.0 3.0 0.00 0.00 0.00 1 975.6
20211023072441 70 221 0.0 4.0 0.00 0.00 0.00 1 975.7
20211023071458 70 210 0.0 4.0 0.00 0.00 0.00 1 975.8
20211023070511 69 218 0.0 3.0 0.00 0.00 0.00 1 975.8
20211023065454 70 217 0.0 0.0 0.00 0.00 0.00 1 975.8
20211023064446 70 221 0.0 1.0 0.00 0.00 0.00 1 975.9
20211023063457 70 223 0.0 0.0 0.00 0.00 0.00 1 975.9
20211023062423 70 213 0.0 0.0 0.00 0.00 0.00 1 976.1
20211023061425 70 206 0.0 0.0 0.00 0.00 0.00 1 976.1
20211023060407 69 215 0.0 2.0 0.00 0.00 0.00 1 976.1
20211023055416 69 214 0.0 0.0 0.00 0.00 0.00 3 976.2
20211023054409 68 211 0.0 0.0 0.00 0.00 0.00 6 976.1
20211023053344 68 211 0.0 0.0 0.00 0.00 0.00 6 976.2
20211023052347 68 211 0.0 0.0 0.00 0.00 0.00 15 976.1
20211023051409 68 211 0.0 0.0 0.00 0.00 0.00 20 976.2
20211023050340 68 211 0.0 0.0 0.00 0.00 0.00 24 976.2
20211023045344 68 211 0.0 0.0 0.00 0.00 0.00 27 976.4
20211023044334 68 211 0.0 0.0 0.00 0.00 0.00 30 976.4
20211023043320 69 211 0.0 0.0 0.00 0.00 0.00 31 976.4
20211023042333 69 211 0.0 0.0 0.00 0.00 0.00 31 976.4
20211023041301 69 211 0.0 0.0 0.00 0.00 0.00 32 976.4
20211023040307 69 211 0.0 0.0 0.00 0.00 0.00 34 976.4
20211023035328 69 211 0.0 0.0 0.00 0.00 0.00 35 976.5
20211023034342 69 211 0.0 0.0 0.00 0.00 0.00 35 976.5
20211023033318 69 211 0.0 0.0 0.00 0.00 0.00 36 976.5
20211023032249 69 211 0.0 0.0 0.00 0.00 0.00 36 976.6
20211023031250 69 211 0.0 0.0 0.00 0.00 0.00 37 976.5
20211023030237 69 211 0.0 0.0 0.00 0.00 0.00 38 976.5
20211023025233 70 211 0.0 0.0 0.00 0.00 0.00 39 976.5
20211023024159 70 211 0.0 0.0 0.00 0.00 0.00 40 976.4
20211023023224 70 211 0.0 0.0 0.00 0.00 0.00 42 976.4
20211023022149 70 211 0.0 0.0 0.00 0.00 0.00 42 976.4
20211023021200 70 211 0.0 0.0 0.00 0.00 0.00 44 976.5
20211023020141 70 211 0.0 0.0 0.00 0.00 0.00 46 976.4
20211023015143 71 211 0.0 0.0 0.00 0.00 0.00 48 976.4
20211023014122 71 211 0.0 0.0 0.00 0.00 0.00 49 976.4
20211023013128 71 211 0.0 0.0 0.00 0.00 0.00 51 976.4
20211023012114 72 211 0.0 0.0 0.00 0.00 0.00 52 976.3
20211023011133 72 211 0.0 0.0 0.00 0.00 0.00 54 976.2
20211023010107 72 211 0.0 0.0 0.00 0.00 0.00 55 976.2